TimeEDT,TemperatureF,Dew PointF,Humidity,Sea Level PressureIn,VisibilityMPH,Wind Direction,Wind SpeedMPH,Gust SpeedMPH,PrecipitationIn,Events,Conditions,WindDirDegrees,DateUTC
12:53 AM,48.0,48.0,100,30.19,0.2,SE,10.4,-,N/A,Fog,Fog,140,2013-04-30 04:53:00
1:53 AM,48.0,48.0,100,30.19,0.2,ESE,6.9,-,0.01,Fog-Rain,Light Rain,120,2013-04-30 05:53:00
2:53 AM,48.0,46.9,96,30.19,0.2,ESE,5.8,-,0.00,Fog,Fog,120,2013-04-30 06:53:00
3:53 AM,48.0,46.9,96,30.19,0.2,ESE,6.9,-,N/A,Fog,Fog,110,2013-04-30 07:53:00
4:53 AM,46.9,46.0,97,30.21,0.2,ESE,6.9,-,0.01,Fog,Fog,110,2013-04-30 08:53:00
5:53 AM,46.9,46.0,97,30.22,0.2,ESE,6.9,-,N/A,Fog,Fog,120,2013-04-30 09:53:00
6:53 AM,46.9,46.0,97,30.25,0.2,ESE,6.9,-,N/A,Fog,Fog,110,2013-04-30 10:53:00
7:53 AM,46.9,46.0,97,30.27,0.2,ESE,9.2,-,0.00,Fog-Rain,Light Rain,110,2013-04-30 11:53:00
8:53 AM,46.9,46.0,97,30.28,0.2,ESE,9.2,-,0.01,Fog-Rain,Light Rain,110,2013-04-30 12:53:00
9:21 AM,46.4,46.4,100,30.25,1.0,ESE,8.1,-,0.00,Rain,Light Rain,110,2013-04-30 13:21:00
9:37 AM,48.2,46.4,93,30.25,4.0,ESE,9.2,-,0.00,,Overcast,110,2013-04-30 13:37:00
9:50 AM,48.2,46.4,93,30.25,10.0,ESE,10.4,-,0.00,,Overcast,110,2013-04-30 13:50:00
9:53 AM,48.0,46.0,93,30.27,10.0,ESE,8.1,-,0.00,,Overcast,110,2013-04-30 13:53:00
10:46 AM,48.2,46.4,93,30.26,10.0,ESE,11.5,16.1,N/A,,Overcast,120,2013-04-30 14:46:00
10:53 AM,50.0,46.9,89,30.28,10.0,ESE,8.1,-,N/A,,Overcast,110,2013-04-30 14:53:00
11:28 AM,51.8,46.4,82,30.26,10.0,ESE,8.1,-,N/A,,Overcast,110,2013-04-30 15:28:00
11:53 AM,52.0,46.9,83,30.28,10.0,ESE,9.2,-,N/A,,Overcast,120,2013-04-30 15:53:00
12:53 PM,55.0,46.9,74,30.29,10.0,ESE,6.9,-,N/A,,Overcast,120,2013-04-30 16:53:00
1:53 PM,55.9,45.0,67,30.28,10.0,ESE,5.8,-,N/A,,Overcast,120,2013-04-30 17:53:00
2:34 PM,57.2,44.6,63,30.27,10.0,SE,10.4,-,N/A,,Partly Cloudy,130,2013-04-30 18:34:00
2:53 PM,57.9,43.0,58,30.28,10.0,East,6.9,-,N/A,,Mostly Cloudy,90,2013-04-30 18:53:00
3:53 PM,61.0,41.0,48,30.28,10.0,SE,9.2,-,N/A,,Clear,130,2013-04-30 19:53:00
4:53 PM,61.0,41.0,48,30.28,10.0,SE,8.1,-,N/A,,Clear,130,2013-04-30 20:53:00
5:53 PM,61.0,39.0,44,30.28,10.0,SE,6.9,-,N/A,,Clear,140,2013-04-30 21:53:00
6:53 PM,59.0,36.0,42,30.29,10.0,SE,10.4,-,N/A,,Clear,140,2013-04-30 22:53:00
8:53 PM,51.1,27.0,39,30.32,10.0,SE,4.6,-,N/A,,Unknown,140,2013-05-01 00:53:00
9:53 PM,48.9,19.9,32,30.33,10.0,SE,5.8,-,N/A,,Clear,130,2013-05-01 01:53:00
10:53 PM,46.9,17.1,30,30.33,10.0,ESE,8.1,-,N/A,,Clear,120,2013-05-01 02:53:00
11:53 PM,45.0,18.0,34,30.34,10.0,SE,3.5,-,N/A,,Clear,130,2013-05-01 03:53:00